Hourly Data Report for October 18, 2016

All times are specified in Local Standard Time (LST). Add 1 hour to adjust for Daylight Saving Time where and when it is observed.

CLYDE RIVER A
NUNAVUT

70°29'09.000" N
68°31'01.000" W
26.50 m
2400804
71090
YCY

Download Data

Hourly Data (October 2016)
Hourly Data Report for October 18, 2016
Temp Definition
°C
Dew Point Temp Definition
°C
Rel Hum Definition
%
Wind Dir Definition
10's deg

Wind Spd Definition
km/h
Visibility Definition
km
Stn Press Definition
kPa
Hmdx Definition


Wind Chill Definition


Weather Definition


TIME
00:00 Legend Double Dagger -12.4 -17.2 68 29 9 16.1 101.25   -18 LegendNANA
01:00 Legend Double Dagger -12.7 -18.3 64 29 15 16.1 101.30   -20 LegendNANA
02:00 Legend Double Dagger -13.1 -18.1 67 28 13 16.1 101.34   -20 LegendNANA
03:00 Legend Double Dagger -10.7 -18.7 52 26 11 16.1 101.36   -16 LegendNANA
04:00 Legend Double Dagger -12.8 -19.2 59 30 17 16.1 101.37   -21 LegendNANA
05:00 Legend Double Dagger -13.7 -18.8 66 30 15 16.1 101.39   -21 LegendNANA
06:00 Legend Double Dagger -12.2 -17.8 63 28 26 16.1 101.40   -22 LegendNANA
07:00 Legend Double Dagger -13.1 -19.1 61 24 13 16.1 101.42   -20 LegendNANA
08:00 Legend Double Dagger -12.2 -18.8 58 26 8 16.1 101.41   -17 LegendNANA
09:00 Legend Double Dagger -10.8 -18.5 54 27 15 16.1 101.40   -18 LegendNANA
10:00 Legend Double Dagger -10.8 -18.2 55 27 11 16.1 101.40   -17 LegendNANA
11:00 Legend Double Dagger -10.9 -18.1 56 25 11 16.1 101.36   -17 LegendNANA
12:00 Legend Double Dagger -10.2 -17.8 54 25 9 16.1 101.34   -15 LegendNANA
13:00 Legend Double Dagger -11.1 -16.7 64 34 5 16.1 101.35   -14 LegendNANA
14:00 Legend Double Dagger -13.5 -18.2 68 31 22 16.1 101.34   -23 LegendNANA
15:00 Legend Double Dagger -12.9 -18.0 66 29 24 16.1 101.32   -22 LegendNANA
16:00 Legend Double Dagger -13.5 -18.1 69 28 24 16.1 101.35   -23 LegendNANA
17:00 Legend Double Dagger -14.3 -18.9 69 29 22 16.1 101.34   -24 LegendNANA
18:00 Legend Double Dagger -14.3 -19.0 68 28 21 16.1 101.30   -24 LegendNANA
19:00 Legend Double Dagger -13.5 -18.8 65 22 8 16.1 101.29   -19 LegendNANA
20:00 Legend Double Dagger -13.2 -18.7 64 26 15 16.1 101.25   -21 LegendNANA
21:00 Legend Double Dagger -12.1 -17.0 68 26 13 16.1 101.24   -19 LegendNANA
22:00 Legend Double Dagger -12.2 -18.4 60 27 17 16.1 101.20   -20 LegendNANA
23:00 Legend Double Dagger -12.6 -18.1 64 21 8 16.1 101.16   -18 LegendNANA

Notes on Data Quality.

Legend

  • E = Estimated
  • M = Missing
  • NA = Not Available
  • ‡ = Partner data that is not subject to review by the National Climate Archives
Date modified: